sat.trackr.live / text

‹ back to catalog

HULIANWANG DIGUI-65

NORAD 65171 · 2025-174H

PAYLOAD ACTIVE UNKNOWN

§ Identity

Operator
Country
PRC
Launch date
2025-08-13
Launch site
WSC
Launch vehicle
Mass (kg)
RCS (m²)

External: N2YO · Heavens-Above · Gunter

§ Orbital elements

Epoch: 2026-05-25T03:12:06.693984Z

Period
108.73 min
Inclination
86.4876°
Eccentricity
0.0002025
Mean motion
13.24404407 rev/d
Perigee alt
1,166.4 km
Apogee alt
1,169.5 km
Semi-major
7,546.1 km
B*
4.1147e-5
RAAN
259.6104°
Arg perigee
94.7641°
Mean anomaly
265.3724°
Rev number
3,773

§ Raw data

HULIANWANG DIGUI-651 65171U 25174H   26145.13341081  .00000032  00000+0  41147-4 0  99932 65171  86.4876 259.6104 0002025  94.7641 265.3724 13.24404407 37736

JSON: /api/v1/satellites/65171 · /tle

For live sub-satellite position, see the globe view (requires WebGL).

§ Visibility from observer

Set your observer location to see the next 7 days of passes ≥ 10°. The values pass through the URL so the page stays shareable.

No JS? Fill the form by hand. The geolocation button needs JavaScript.